GSAT0224

Last updated on Fri Feb 10 2023 00:03:18 GMT+0000 (Coordinated Universal Time)

1 49810U 21116B 23040.47543720 -.00000064 00000+0 00000+0 0 9993 2 49810 57.2412 14.6758 0001789 277.3000 256.4916 1.70475860 7345

Satellite not in orbit

GSAT0224